Temperature
26 25 24 23 22 21 21 21 21 20 20 20 20 19 19 19 19 19 19 19 19 19 19 19 19 18 18 18 19 19 19 19 19 19 19 19 19 19 19 19 19 19 18
26 25 24 23 22 22 21 21 21 20 20 20 20 20 19 19 19 19 19 19 19 19 19 19 18 18 18 18 18 18 18 19 19 19 19 19 19 19 19 19 19 19 18
26 25 24 23 23 22 21 21 21 20 20 20 20 20 19 19 19 19 19 19 19 19 19 19 18 18 18 18 18 18 18 19 19 19 19 18 19 19 19 19 19 19 18
26 25 24 23 23 22 21 21 21 20 20 20 20 19 19 19 19 19 19 19 19 19 19 18 18 18 18 18 18 18 18 18 18 18 19 18 18 19 19 19 19 19 18
27 26 25 24 23 22 22 21 21 20 20 20 19 19 19 19 19 19 19 19 19 19 18 18 18 18 18 18 18 18 18 18 18 18 18 18 18 19 18 18 19 18 18
27 26 25 24 23 22 22 21 21 20 20 20 19 19 19 19 19 19 19 19 19 19 18 18 18 18 18 18 18 18 18 18 18 18 18 18 18 18 18 18 18 18 18
26 25 25 24 23 22 22 21 21 20 20 20 20 19 19 19 19 19 19 19 19 18 18 18 18 18 18 18 18 18 17 17 17 17 18 17 18 18 18 18 18 18 18
26 26 25 24 23 22 22 21 21 20 20 20 19 19 19 19 19 19 19 19 18 18 18 18 18 18 18 17 17 17 17 17 17 17 17 17 17 17 17 17 17 17 17
26 25 25 24 23 23 22 21 20 20 20 19 19 19 19 19 19 19 19 18 18 18 18 18 18 18 17 17 17 17 17 17 17 17 17 17 17 17 17 17 17 17 17
26 25 24 24 23 23 22 21 20 20 20 19 19 19 19 19 19 19 18 18 18 18 18 18 17 17 17 17 17 17 16 16 16 16 16 17 17 17 17 17 17 16 16
26 25 24 24 23 22 22 21 21 20 20 19 19 19 18 18 18 18 18 18 18 18 18 17 17 17 17 17 17 16 16 16 16 16 16 16 16 16 16 16 16 16 16
26 25 24 23 23 22 22 21 21 20 20 19 19 19 18 18 18 18 18 17 17 17 17 17 17 17 17 17 16 16 16 16 15 15 15 16 16 16 16 16 15 16 16
26 25 24 23 22 22 21 21 21 20 20 19 19 18 18 18 18 17 17 17 17 17 16 16 16 16 16 16 16 16 15 15 15 15 15 15 15 15 15 15 15 15 15
25 24 23 22 22 21 21 20 20 20 20 19 19 18 18 17 17 17 17 17 17 16 16 16 16 16 16 16 16 16 15 15 15 15 15 15 15 15 15 15 15 15 15
25 24 23 22 21 21 20 20 20 19 19 19 18 18 17 17 17 16 17 17 16 16 16 16 16 16 15 15 15 15 15 15 15 14 14 14 14 14 14 14 14 14 14
25 23 22 21 21 20 20 19 19 19 18 18 18 17 17 17 16 16 16 16 16 16 16 16 16 15 15 15 15 15 15 14 14 14 14 14 14 14 14 14 14 14 14
24 23 22 21 20 20 19 19 19 18 18 17 17 17 16 16 16 16 16 16 16 15 15 15 15 15 15 15 15 15 15 14 14 14 14 14 14 14 14 14 14 14 14
23 22 22 21 20 19 19 18 18 18 17 17 17 16 16 16 16 16 15 15 15 15 15 15 15 15 15 15 15 14 14 14 14 14 14 14 14 14 13 13 13 13 13
22 21 21 20 20 19 18 18 18 17 17 17 16 16 16 16 15 15 15 14 14 14 14 14 14 14 15 14 14 14 14 14 14 14 13 13 13 13 13 13 13 13 13
22 21 20 20 19 18 18 18 18 17 17 16 16 16 15 15 15 15 14 14 14 14 14 14 14 14 14 14 14 14 14 14 13 13 13 13 13 13 13 13 13 13 13
21 20 20 19 19 18 18 17 17 17 16 16 15 15 15 15 15 15 14 14 14 14 14 14 14 14 14 14 14 14 13 13 13 13 13 13 13 13 13 13 13 13 13
20 20 19 19 18 17 17 17 16 16 16 15 15 15 15 14 14 14 14 14 14 14 14 14 14 14 14 13 13 13 13 13 12 12 12 12 12 13 13 12 12 12 12
20 19 19 18 17 17 17 16 16 16 15 15 15 15 14 14 14 14 14 14 14 14 13 13 13 13 13 13 13 13 13 12 12 12 12 12 12 12 12 12 12 12 12
19 19 18 17 17 16 16 16 16 15 15 15 14 14 14 14 14 14 14 13 13 13 13 13 13 13 13 13 12 12 12 12 12 12 12 12 12 12 12 12 12 12 12
19 18 17 17 16 16 16 15 15 15 14 14 14 14 14 14 14 14 14 13 13 13 13 13 13 12 12 12 12 12 12 11 11 11 11 11 11 12 12 12 12 12 11
18 17 17 16 16 15 15 15 14 14 14 14 14 14 14 14 14 13 13 13 13 13 13 13 12 12 12 12 12 12 11 11 11 11 11 11 11 11 11 11 11 11 11
Wind_Speed
9 10 9 9 9 8 6 5 4 4 2 1 1 1 2 2 2 3 4 3 3 2 2 2 1 2 2 2 1 1 2 1 1 0 1 1 1 1 1 1 1 2 4
9 9 9 9 9 8 6 5 3 3 2 2 2 1 1 1 2 3 3 3 2 1 2 2 2 2 2 2 1 1 2 2 0 0 1 1 0 1 2 2 2 2 2
10 10 9 8 8 8 7 5 4 3 2 2 1 1 1 1 1 2 2 2 2 1 2 1 2 1 1 1 1 1 2 2 2 0 0 0 1 1 1 1 2 2 2
10 10 10 8 7 8 7 6 5 4 3 1 1 1 1 1 1 1 1 2 1 1 1 1 0 1 1 1 2 2 2 2 2 2 1 0 1 1 1 1 1 2 2
11 11 10 9 7 8 7 7 5 4 3 1 1 1 1 1 1 1 1 1 1 1 0 1 1 0 0 1 1 2 2 3 3 2 2 1 1 2 1 1 1 0 1
9 9 9 9 7 7 7 7 6 4 3 2 1 1 2 2 2 2 1 0 1 1 1 1 1 1 1 1 1 1 2 2 2 3 3 2 1 2 1 1 1 1 1
9 8 8 9 7 7 7 7 7 5 3 3 2 1 1 1 1 1 1 1 0 0 1 1 1 1 1 1 1 1 1 2 2 2 2 3 2 2 2 2 2 1 1
9 9 8 9 8 7 7 7 7 5 4 3 2 1 0 0 1 1 2 1 1 1 1 1 1 1 1 1 1 1 1 1 2 3 3 3 2 2 2 1 2 2 1
9 8 8 8 8 7 7 7 6 5 4 4 3 2 1 1 2 2 2 2 2 1 2 1 1 1 1 2 2 1 2 2 2 3 3 3 3 2 2 2 1 2 2
9 9 8 7 6 6 6 6 6 5 4 4 3 2 2 1 1 1 1 2 2 2 2 1 1 1 1 1 1 1 1 1 2 2 2 3 3 3 3 2 2 1 2
9 9 8 7 5 5 6 5 6 5 5 4 3 2 2 2 1 0 1 1 2 2 1 1 1 1 1 1 1 1 1 1 2 2 2 2 3 4 4 3 3 2 1
9 9 8 7 5 4 4 4 5 5 5 4 3 2 1 1 1 1 1 1 1 1 1 1 1 1 1 1 1 2 2 2 2 2 2 3 3 3 3 3 4 3 2
9 9 8 7 5 4 3 3 3 3 4 4 3 3 2 1 1 1 1 1 1 1 1 1 1 1 1 1 1 2 2 2 2 2 2 2 3 3 3 3 3 3 3
8 9 8 7 6 5 4 3 3 3 4 4 3 3 3 2 2 2 2 2 2 2 2 2 1 1 1 2 3 2 2 2 2 1 1 2 2 2 3 3 3 3 3
9 9 8 7 6 6 5 4 4 4 4 4 3 3 3 3 3 3 3 3 3 2 2 2 2 2 1 2 3 3 2 1 2 2 2 2 1 2 3 3 3 3 3
9 9 8 8 6 6 5 4 4 4 5 4 3 3 3 3 3 2 3 3 2 2 2 2 2 2 2 4 5 3 3 2 1 2 3 2 1 1 2 4 4 4 3
9 9 7 7 6 5 4 4 4 5 4 4 4 4 4 4 3 3 3 2 2 2 2 2 2 2 2 3 3 4 3 3 2 3 3 5 3 2 2 4 4 5 5
8 7 7 7 7 6 5 4 5 5 5 4 4 3 3 3 2 3 3 2 2 2 2 2 2 1 2 2 2 4 3 2 2 2 3 3 4 4 4 4 3 4 4
8 7 7 8 7 6 5 5 5 5 4 3 3 3 2 2 2 2 2 2 2 2 2 2 1 1 1 2 2 3 2 2 2 2 2 3 2 4 5 3 4 4 5
7 7 7 8 7 5 5 4 4 4 3 3 2 2 2 2 2 1 2 2 2 2 2 2 2 1 1 1 2 3 3 2 2 1 1 3 3 4 5 4 4 5 6
7 7 7 7 6 5 5 4 3 3 3 3 3 2 2 1 0 1 1 1 2 2 2 2 2 1 1 1 2 3 2 3 3 2 1 1 2 3 4 5 4 6 7
7 7 7 7 6 5 5 4 4 4 3 3 2 2 1 1 1 1 1 1 2 2 3 2 2 0 1 2 1 2 3 4 4 4 3 3 4 5 6 5 6 8 7
7 6 7 7 6 5 5 4 4 3 2 2 1 1 1 1 1 1 2 2 2 2 2 2 2 2 2 2 2 2 4 5 3 4 6 7 6 6 5 7 8 6 4
7 6 7 6 5 5 4 4 4 3 2 1 1 0 0 1 1 1 2 2 2 3 3 3 3 3 3 3 4 4 3 4 4 4 6 7 7 6 6 6 4 3 3
6 6 5 5 5 5 4 4 3 2 1 1 1 1 1 1 1 1 2 2 2 2 2 3 3 3 3 4 3 3 4 4 5 5 4 4 3 3 3 3 2 2 2
6 6 5 5 5 5 4 3 3 2 1 1 1 2 1 1 1 1 2 5 3 2 2 2 2 3 3 4 6 6 6 6 5 4 5 5 4 4 3 3 3 2 2
Wind_Direction
148 140 132 126 122 115 110 105 96 90 85 83 82 75 79 89 93 101 93 88 79 61 52 39 39 45 72 63 32 12 320 289 301 329 324 280 173 125 138 148 129 149 150
152 142 139 137 133 129 127 122 117 109 109 86 79 103 87 92 96 94 101 100 93 67 77 57 17 32 41 52 28 350 321 307 354 286 296 314 349 290 203 156 170 145 140
162 154 147 143 140 137 135 130 118 105 92 90 94 89 100 90 73 105 117 115 106 82 54 67 40 5 34 46 324 323 335 326 315 44 77 348 325 294 261 187 151 142 132
160 157 150 147 149 139 132 124 120 113 99 94 59 53 77 57 43 72 92 111 103 104 100 100 71 333 18 28 322 19 331 318 321 314 289 161 144 267 297 296 194 167 152
159 158 155 154 149 139 135 127 119 112 109 100 63 22 16 32 50 52 87 114 131 119 169 144 115 38 8 19 353 355 336 341 341 336 331 327 277 259 241 266 290 254 143
152 151 151 148 146 143 137 133 124 117 118 113 77 50 358 15 20 358 358 214 145 151 137 105 89 61 9 17 351 341 330 335 345 340 344 347 329 323 312 300 295 280 185
151 150 154 150 148 146 140 134 133 134 137 137 124 100 355 342 329 312 327 335 2 59 76 49 66 36 17 347 340 300 323 338 338 328 326 323 323 323 330 331 319 314 283
156 158 159 154 154 153 146 139 141 145 145 141 132 112 111 292 329 342 347 3 352 33 70 89 83 52 357 350 13 344 332 345 332 327 328 313 322 318 336 327 323 321 317
156 155 157 156 159 157 153 148 146 146 147 147 140 134 125 18 17 20 3 11 355 15 67 83 76 45 10 359 20 359 355 1 335 332 334 328 320 323 327 319 326 310 302
149 146 145 146 145 151 154 151 148 150 144 143 158 153 153 119 75 19 12 4 11 27 35 24 43 46 9 6 351 349 352 339 331 321 342 340 344 340 336 330 317 292 277
148 146 142 136 139 147 146 153 155 154 151 156 154 144 145 149 147 61 348 360 13 22 9 353 356 21 35 8 343 336 348 328 321 324 2 354 353 348 344 342 328 315 313
135 134 130 128 132 129 132 148 158 160 153 143 137 127 116 128 132 94 13 22 36 29 5 351 342 346 41 34 2 333 335 328 332 338 3 354 354 350 342 338 331 326 313
125 125 122 120 119 118 110 122 130 131 132 130 133 121 105 77 53 58 33 7 19 12 5 354 347 346 16 12 347 326 319 323 332 342 1 350 349 339 336 335 331 324 324
128 125 123 124 119 115 109 97 97 101 106 106 103 96 83 61 49 36 34 31 28 29 12 352 347 356 28 351 333 315 305 323 326 342 347 328 329 335 328 325 334 326 325
142 135 133 129 126 118 108 100 94 87 85 90 87 87 80 69 57 40 36 36 25 24 16 343 344 333 346 343 336 311 304 295 298 319 319 318 21 31 342 332 333 329 322
143 138 135 129 120 118 114 114 103 93 90 88 81 75 63 59 52 36 36 29 24 18 3 337 345 346 341 9 24 7 327 321 319 317 312 304 318 336 317 309 308 306 300
137 134 133 125 122 117 104 112 109 99 91 81 73 70 61 58 42 26 40 27 18 8 347 343 353 14 359 7 7 349 325 332 336 325 318 317 339 7 331 301 285 286 276
128 135 136 128 120 113 108 107 104 99 90 82 77 78 68 60 45 38 31 13 3 347 342 329 326 327 337 8 348 325 296 303 311 314 315 319 329 334 333 306 307 301 296
121 127 128 125 118 113 108 107 108 105 96 87 82 76 65 54 48 36 17 353 342 329 310 315 346 322 321 349 342 309 282 282 286 301 331 321 328 342 338 314 306 308 306
120 123 120 118 115 110 109 112 110 100 89 78 69 64 60 41 30 32 3 350 329 313 315 331 342 336 353 13 356 321 296 304 310 320 340 10 359 344 342 323 307 302 304
123 120 112 110 109 111 115 114 100 86 78 76 66 56 54 33 79 54 360 329 315 322 317 308 303 319 84 66 23 349 326 326 321 321 315 324 334 320 304 297 291 290 299
124 121 115 113 110 115 116 110 91 83 80 80 68 47 11 325 29 11 320 299 291 294 301 300 299 330 106 82 36 341 318 319 322 320 322 321 314 304 294 287 289 296 302
127 121 115 111 110 112 111 108 94 91 84 73 57 24 356 354 13 337 322 307 305 313 321 324 325 342 29 65 43 346 325 333 321 325 330 320 302 293 288 278 286 292 295
130 126 124 119 112 109 102 98 97 95 89 82 68 350 300 326 9 343 337 345 345 337 339 340 341 354 6 15 4 343 330 319 308 311 307 291 276 272 279 287 285 276 289
126 125 123 124 117 107 99 101 100 97 70 31 356 305 309 313 324 337 352 347 20 24 353 347 346 341 342 352 351 341 332 328 330 324 303 298 298 286 287 286 284 292 311
122 118 117 120 117 115 109 103 102 93 56 350 323 317 324 342 326 329 11 29 26 54 65 25 1 1 1 335 340 338 330 322 324 321 300 300 305 312 312 308 303 300 311
Height
1497 1500 1502 1503 1505 1505 1506 1507 1507 1507 1507 1507 1507 1507 1507 1508 1508 1508 1507 1507 1507 1507 1506 1506 1506 1506 1505 1505 1506 1506 1506 1506 1506 1506 1506 1505 1505 1505 1505 1505 1505 1505 1505
1496 1499 1501 1503 1504 1505 1506 1506 1507 1507 1507 1507 1507 1508 1508 1508 1508 1508 1508 1507 1507 1507 1507 1506 1506 1506 1506 1506 1505 1505 1505 1506 1506 1506 1505 1505 1506 1505 1505 1504 1504 1505 1505
1494 1497 1500 1502 1504 1505 1505 1506 1506 1507 1507 1507 1507 1508 1508 1508 1508 1508 1508 1508 1507 1507 1507 1506 1506 1506 1506 1505 1505 1505 1505 1505 1505 1506 1506 1505 1505 1504 1505 1504 1504 1504 1504
1492 1496 1499 1501 1503 1504 1505 1506 1506 1506 1507 1507 1507 1508 1508 1508 1508 1508 1508 1508 1507 1507 1507 1506 1506 1506 1505 1505 1505 1505 1504 1504 1504 1504 1505 1505 1504 1504 1504 1504 1503 1503 1503
1490 1494 1497 1499 1502 1503 1504 1505 1506 1506 1506 1507 1507 1507 1508 1508 1508 1508 1508 1508 1507 1507 1507 1506 1506 1505 1505 1505 1504 1504 1503 1503 1503 1503 1504 1504 1503 1503 1503 1503 1503 1503 1502
1488 1492 1495 1498 1500 1502 1503 1504 1505 1505 1506 1506 1506 1507 1507 1507 1507 1507 1507 1507 1507 1507 1506 1506 1506 1505 1504 1504 1504 1503 1503 1502 1502 1502 1502 1503 1502 1502 1502 1502 1501 1501 1501
1487 1490 1494 1497 1499 1501 1502 1503 1504 1504 1505 1505 1506 1506 1506 1507 1506 1507 1507 1507 1507 1506 1506 1505 1505 1504 1504 1504 1503 1503 1502 1502 1502 1501 1501 1501 1502 1501 1501 1501 1500 1500 1500
1486 1489 1492 1495 1498 1500 1501 1502 1503 1504 1504 1505 1505 1505 1506 1506 1506 1506 1506 1506 1506 1505 1505 1504 1504 1503 1503 1503 1503 1502 1502 1501 1501 1501 1500 1501 1500 1500 1500 1500 1499 1498 1498
1485 1489 1492 1494 1497 1499 1500 1501 1502 1503 1504 1504 1504 1504 1505 1505 1505 1505 1505 1505 1504 1504 1504 1503 1503 1502 1502 1502 1502 1501 1501 1500 1500 1500 1500 1499 1499 1499 1499 1499 1498 1499 1497
1484 1488 1491 1494 1496 1498 1500 1501 1502 1502 1503 1503 1504 1504 1504 1504 1504 1504 1504 1503 1503 1503 1502 1502 1501 1501 1501 1501 1500 1500 1500 1499 1499 1499 1498 1498 1498 1497 1497 1497 1496 1496 1496
1483 1487 1490 1493 1496 1497 1499 1500 1501 1502 1502 1503 1503 1503 1503 1504 1504 1503 1503 1502 1502 1501 1500 1500 1500 1500 1500 1499 1499 1499 1499 1498 1498 1498 1497 1497 1496 1496 1495 1494 1494 1494 1494
1483 1487 1490 1493 1495 1497 1498 1499 1500 1501 1501 1501 1502 1502 1503 1503 1502 1502 1501 1501 1500 1500 1499 1499 1499 1499 1498 1498 1498 1498 1497 1497 1496 1496 1495 1495 1495 1494 1493 1492 1492 1492 1491
1483 1486 1490 1493 1495 1496 1497 1498 1499 1500 1500 1501 1501 1501 1501 1501 1501 1500 1500 1500 1499 1499 1499 1498 1498 1497 1497 1497 1497 1497 1496 1496 1495 1495 1494 1493 1492 1492 1491 1490 1490 1489 1489
1484 1486 1490 1492 1494 1495 1496 1497 1498 1499 1499 1500 1500 1500 1500 1500 1500 1500 1499 1499 1498 1497 1497 1497 1497 1496 1496 1496 1496 1495 1495 1494 1494 1493 1493 1492 1491 1490 1489 1489 1488 1487 1486
1484 1486 1489 1491 1493 1494 1496 1497 1498 1498 1498 1499 1499 1499 1499 1499 1499 1498 1498 1498 1497 1496 1496 1496 1496 1495 1495 1494 1494 1493 1493 1493 1492 1492 1491 1490 1489 1488 1488 1487 1486 1485 1485
1483 1486 1489 1490 1492 1493 1494 1496 1497 1498 1498 1498 1499 1499 1499 1499 1498 1498 1497 1497 1496 1495 1495 1494 1494 1494 1493 1493 1492 1492 1491 1491 1490 1490 1489 1489 1487 1486 1486 1485 1484 1484 1483
1482 1485 1488 1490 1492 1493 1494 1495 1497 1497 1498 1498 1498 1498 1498 1498 1497 1497 1496 1495 1495 1494 1493 1492 1492 1491 1491 1491 1490 1490 1489 1489 1488 1487 1487 1487 1486 1484 1484 1483 1482 1481 1481
1482 1485 1487 1489 1491 1492 1494 1495 1496 1497 1497 1498 1498 1497 1497 1497 1497 1496 1495 1494 1493 1492 1491 1490 1490 1490 1489 1489 1488 1488 1487 1486 1486 1485 1485 1484 1483 1482 1481 1480 1479 1478 1478
1482 1485 1487 1489 1491 1492 1493 1495 1496 1496 1497 1497 1497 1497 1497 1496 1496 1495 1494 1493 1492 1491 1491 1490 1489 1488 1487 1487 1486 1486 1484 1484 1483 1483 1482 1482 1481 1480 1479 1478 1477 1475 1474
1484 1486 1487 1489 1491 1492 1493 1494 1495 1496 1496 1497 1497 1496 1496 1495 1495 1494 1494 1492 1491 1491 1490 1489 1488 1487 1486 1485 1484 1483 1482 1481 1481 1480 1480 1479 1479 1478 1477 1475 1474 1473 1472
1484 1486 1487 1489 1491 1492 1493 1494 1495 1495 1496 1496 1496 1496 1495 1495 1495 1494 1493 1492 1491 1490 1489 1488 1487 1486 1485 1484 1483 1482 1480 1479 1479 1478 1477 1477 1476 1475 1474 1473 1472 1471 1470
1484 1486 1487 1489 1490 1492 1493 1493 1494 1495 1495 1495 1495 1495 1495 1495 1494 1493 1492 1491 1490 1489 1488 1487 1486 1485 1484 1482 1481 1480 1479 1478 1477 1476 1475 1475 1473 1472 1472 1471 1469 1468 1467
1484 1486 1487 1489 1490 1491 1492 1493 1493 1494 1494 1494 1494 1494 1494 1493 1493 1492 1491 1490 1489 1489 1488 1486 1485 1484 1483 1482 1480 1479 1478 1477 1476 1474 1473 1472 1471 1470 1469 1468 1467 1466 1464
1484 1486 1487 1489 1490 1491 1492 1492 1493 1493 1493 1493 1493 1493 1493 1492 1492 1491 1491 1489 1489 1488 1487 1486 1485 1483 1482 1481 1479 1477 1476 1475 1474 1472 1471 1470 1469 1468 1467 1465 1464 1463 1462
1484 1486 1487 1488 1489 1490 1491 1492 1492 1492 1492 1492 1492 1492 1492 1491 1491 1490 1490 1489 1488 1487 1486 1484 1483 1482 1480 1479 1478 1476 1474 1473 1472 1470 1469 1468 1467 1465 1464 1463 1462 1461 1459
1484 1485 1487 1488 1488 1489 1490 1491 1492 1492 1492 1492 1492 1492 1492 1491 1490 1489 1489 1488 1487 1486 1485 1483 1482 1480 1479 1477 1476 1474 1473 1471 1470 1469 1467 1466 1465 1464 1463 1462 1460 1459 1457